STARLINK-30882, 58379

Orbit data source: Space-Track

STARLINK-30882, 58379 is a payload satellite owned by SpaceX/Seattle (US) in LEO that was launched on Mon, 20 Nov 2023 UTC via an FALCON 9 launch vehicle from the Air Force Western Test Range (AFWTR). Payload-class satellites include a variety of spacecraft equipped with specific instruments for various scientific and technological missions. These include communications satellites like Starlink; space stations such as the ISS; scientific satellites like the Hubble; Earth observation satellites from companies like Planet Labs, Umbra, and HawkEye 360; GPS; miniature CubeSats for education and research; and military/defense satellites.

Loading next visibility...
Identifier
58379, 2023-178F
Orbit
LEO
Country
Flag of USUS
Related business
Manufacturer
SpaceX/Seattle
Mission
Operational Commercial Communications
Bus & Motor
STARLINK V2M, Unknown motor
Mass
730 kg wet, ~700 kg dry
Launch date (UTC)
2023-11-20 (3 years ago)
Launch vehicle
FALCON 9
Launch site
Air Force Western Test Range (AFWTR)
Object type
Payload
Rocket body
Debris
Shape & HBR
Box + 2 Pan, 17.7 m
Radar Cross Section
33.884 m², Large (>1 m²)

Expand to show TLE details & history
Last TLE update: 2 days ago

TLE from 2 days ago
0 STARLINK-30882
1 58379U 23178F   26171.43872144  .00000255  00000-0  18683-4 0  9995
2 58379  53.1611 242.3393 0001266  95.4420 264.6727 15.34390933145640
Epoch: 2026-06-20T10:31Z
TLE epoch observation values (Epoch: 2026-06-20T10:31:45.532Z)
Latitude
-0.00002°
Longitude
175.74623°
Altitude
463.712 km
Speed
7.636 km/s
True Right ascension
16h 09m 21s
True Declination
0° 00' 00"
Sunlit
Object was in full shadow at epoch
Visualization orbit readout
Latitude
Unknown
Longitude
Unknown
Altitude
Unknown
Speed
Unknown
Apparent Right ascension
Unknown
Apparent Declination
Unknown
Sunlit
N/A
Visualization observer readout
Local Sidereal Time
21:31:12
Azimuth
Unknown
Elevation
Unknown
Doppler factor
Unknown
Orbital elements
Apogee altitude
463.853 km
Perigee altitude
462.121 km
Semi-major axis
6,841.124 km
Eccentricity
0.00013
Inclination
53.1611°
RAAN
242.3393°
Arg. of periapsis
95.442°
True anomaly
264.65826°
Mean anomaly
264.6727°
Eccentric anomaly
264.66548°
Mean motion
3.83576 °/min
Orbital period
93.85 mins
BSTAR
0.000018683
Loading maneuver chart data...
Computing Atmospheric mass density...
Loading historical data...
Loading historical data...
Loading historical data...
Loading historical data...
Loading historical data...
Loading historical data...
Loading historical data...

Documentation

Showing up to 5 results
|